This is the latest recevied weather packets stored in our database for station/object KD2ZLA. If no packets are shown the sender has not sent any weather packets the latest 10 day(s).
| Time | Temp. | Humidity | Pressure | Rain* | Wind** | Luminosity | Snow |
|---|---|---|---|---|---|---|---|
| 1778013237 | 19.44° C | 57% | 1002.4 hPa | 0 mm | - | 121 W/m² | - |
| 1778012933 | 20° C | 56% | 1002.4 hPa | 0 mm | - | 101 W/m² | - |
| 1778012629 | 20° C | 57% | 1002.4 hPa | 0 mm | - | 113 W/m² | - |
| 1778012326 | 20° C | 56% | 1002.2 hPa | 0 mm | - | 120 W/m² | - |
| 1778012023 | 20° C | 55% | 1002.2 hPa | 0 mm | - | 147 W/m² | - |
| 1778011722 | 20.56° C | 55% | 1002.3 hPa | 0 mm | - | 206 W/m² | - |
| 1778011418 | 20.56° C | 55% | 1002.3 hPa | 0 mm | - | 300 W/m² | - |
| 1778011114 | 20.56° C | 55% | 1002.4 hPa | 0 mm | - | 248 W/m² | - |
| 1778010811 | 20.56° C | 54% | 1002.3 hPa | 0 mm | - | 235 W/m² | - |
| 1778010508 | 20.56° C | 55% | 1002.3 hPa | 0 mm | - | 298 W/m² | - |
| 1778010206 | 20.56° C | 55% | 1002.2 hPa | 0 mm | - | 533 W/m² | - |
| 1778009900 | 20° C | 56% | 1002.4 hPa | 0 mm | - | 399 W/m² | - |
| 1778009599 | 20° C | 56% | 1002.3 hPa | 0 mm | - | 286 W/m² | - |
| 1778009296 | 20° C | 55% | 1002.3 hPa | 0 mm | - | 391 W/m² | - |
| 1778008994 | 20.56° C | 55% | 1002.4 hPa | 0 mm | - | 432 W/m² | - |
| 1778008692 | 20° C | 56% | 1002.1 hPa | 0 mm | - | 345 W/m² | - |
| 1778008390 | 20° C | 56% | 1002 hPa | 0 mm | - | 177 W/m² | - |
| 1778008086 | 20° C | 56% | 1002.3 hPa | 0 mm | - | 154 W/m² | - |
| 1778007782 | 20° C | 58% | 1002 hPa | 0 mm | - | 198 W/m² | - |
| 1778007478 | 20° C | 62% | 1002.1 hPa | 0 mm | - | 178 W/m² | - |
| 1778007174 | 20° C | 65% | 1002.3 hPa | 0 mm | - | 216 W/m² | - |
| 1778006870 | 20° C | 65% | 1002 hPa | 0 mm | - | 345 W/m² | - |
| 1778006568 | 20° C | 64% | 1002 hPa | 0 mm | - | 260 W/m² | - |
| 1778006265 | 20° C | 66% | 1002 hPa | 0 mm | - | 474 W/m² | - |
| 1778005962 | 20° C | 66% | 1001.9 hPa | 0 mm | - | 364 W/m² | - |
* Rain latest hour (hover to see other rain measurements)
** Current wind speed in m/s (hover to see current wind gust speed)